Date,TemperatureHighF,TemperatureAvgF,TemperatureLowF,DewpointHighF,DewpointAvgF,DewpointLowF,HumidityHigh,HumidityAvg,HumidityLow,PressureMaxIn,PressureMinIn,WindSpeedMaxMPH,WindSpeedAvgMPH,GustSpeedMaxMPH,PrecipitationSumIn
2012-1-24,-200,0,200,-100,-100,-100,0,0,100,0.00,40.00,0,-999,0,0.00
2012-1-25,-200,0,200,-100,-100,-100,0,0,100,0.00,40.00,0,-999,0,0.00
2012-1-26,-200,0,200,-100,-100,-100,0,0,100,0.00,40.00,0,-999,0,0.00
2012-1-27,-200,0,200,-100,-100,-100,0,0,100,0.00,40.00,0,-999,0,0.00
2012-1-28,-200,0,200,-100,-100,-100,0,0,100,0.00,40.00,0,-999,0,0.00
2012-1-29,-200,0,200,-100,-100,-100,0,0,100,0.00,40.00,0,-999,0,0.00
2012-8-13,-200,0,200,-100,-100,-100,0,0,100,0.00,40.00,0,-999,0,0.00
2012-8-14,-200,0,200,-100,-100,-100,0,0,100,0.00,40.00,0,-999,0,0.00
2012-8-16,-200,0,200,-100,-100,-100,0,0,100,0.00,40.00,0,-999,0,0.00
2012-8-18,-200,0,200,-100,-100,-100,0,0,100,0.00,40.00,0,-999,0,0.00
2012-8-19,-200,0,200,-100,-100,-100,0,0,100,0.00,40.00,0,-999,0,0.00
2012-8-20,-200,0,200,-100,-100,-100,0,0,100,0.00,40.00,0,-999,0,0.00
2012-8-23,-200,0,200,-100,-100,-100,0,0,100,0.00,40.00,0,-999,0,0.00
2012-8-24,-200,0,200,-100,-100,-100,0,0,100,0.00,40.00,0,-999,0,0.00
2012-8-25,79,68,67,18,7,-100,12,9,10,0.00,40.00,11,-66,13,0.00
2012-8-26,86,69,51,34,20,-100,24,16,11,0.00,40.00,26,-6,33,0.00
2012-8-27,88,73,56,40,34,26,34,24,18,0.00,40.00,21,10,30,0.00
2012-8-28,91,77,63,41,36,-100,33,23,16,0.00,40.00,19,4,28,0.00
2012-8-29,89,74,60,42,32,-100,39,24,14,0.00,40.00,26,-1,41,0.00
2012-8-30,83,69,54,43,30,-100,49,24,15,0.00,40.00,26,3,34,0.00
2012-8-31,82,68,56,44,40,35,53,38,23,0.00,40.00,32,14,46,0.00
2012-9-1,75,62,53,46,38,-100,75,45,25,0.00,40.00,36,-2,47,0.00
2012-9-2,76,63,50,42,31,-100,70,36,16,0.00,40.00,30,1,39,0.00
2012-9-3,80,66,49,33,26,-100,36,23,14,0.00,40.00,29,8,39,0.00
2012-9-4,80,66,50,31,23,14,26,19,14,0.00,40.00,29,14,40,0.00
2012-9-5,81,63,38,30,18,-100,50,20,12,0.00,40.00,25,-20,35,0.00
2012-9-6,76,62,49,40,24,-100,71,25,16,0.00,40.00,24,-1,35,0.00
2012-9-7,69,56,44,42,32,18,85,46,20,0.00,40.00,13,7,20,0.00
2012-9-8,80,62,48,28,21,-100,33,21,11,0.00,40.00,15,-1,23,0.00
2012-9-9,81,65,48,23,14,-100,20,14,9,0.00,40.00,26,1,35,0.00
2012-9-10,79,67,56,36,28,-100,34,24,18,0.00,40.00,35,2,45,0.00
2012-9-11,75,63,50,37,29,-100,40,29,15,0.00,40.00,29,2,38,0.00
2012-9-12,67,52,36,27,19,-100,40,28,21,0.00,40.00,21,2,26,0.00
2012-9-13,75,56,35,23,16,10,35,21,12,0.00,40.00,14,5,16,0.00
2012-9-14,83,61,37,27,15,-100,33,18,10,0.00,40.00,17,-12,24,0.00
2012-9-15,83,66,45,21,14,-100,21,13,9,0.00,40.00,19,-1,27,0.00
2012-9-16,74,61,47,27,19,7,39,20,14,0.00,40.00,24,9,35,0.00
2012-9-17,64,52,42,33,26,-100,57,38,25,0.00,40.00,16,-7,21,0.00
2012-9-18,79,61,43,31,24,17,36,25,14,0.00,40.00,13,6,27,0.00
2012-9-19,77,62,46,29,22,-100,30,21,16,0.00,40.00,17,-9,22,0.00
2012-9-20,76,61,47,30,22,-100,30,23,18,0.00,40.00,11,-10,15,0.00
2012-9-21,75,60,47,30,23,-100,31,24,18,0.00,40.00,15,-2,17,0.00
2012-9-22,78,60,40,31,23,-100,42,25,15,0.00,40.00,16,8,26,0.00
2012-9-23,80,62,44,39,22,-100,54,22,16,0.00,40.00,26,0,40,0.00
2012-9-24,71,57,43,41,35,-100,77,46,26,0.00,40.00,24,0,28,0.00
2012-9-25,65,53,44,41,38,35,78,58,35,0.00,40.00,15,5,23,0.00
2012-9-26,64,49,39,43,35,-100,88,63,32,0.00,40.00,14,-16,17,0.00
2012-9-27,71,53,41,42,35,26,87,56,19,0.00,40.00,12,6,17,0.00
2012-9-28,71,56,43,36,30,21,72,42,16,0.00,40.00,18,10,26,0.00
2012-9-29,69,56,42,31,27,23,53,33,21,0.00,40.00,17,7,25,0.00
2012-9-30,75,59,40,33,28,23,54,31,18,0.00,40.00,13,4,17,0.00
2012-10-1,73,56,38,31,28,22,64,35,19,0.00,40.00,19,10,24,0.00
2012-10-2,76,59,37,26,21,15,44,24,13,0.00,40.00,28,15,41,0.00
2012-10-3,59,45,30,25,19,15,56,36,19,0.00,40.00,26,9,35,0.00
2012-10-4,51,35,22,20,15,11,84,48,23,0.00,40.00,14,-196,19,0.00
2012-10-5,41,29,22,21,16,11,86,60,37,0.00,40.00,14,-76,19,0.00
2012-10-6,38,29,21,24,15,8,89,60,30,0.00,40.00,11,-117,14,0.00
2012-10-7,55,36,15,16,9,2,73,38,14,0.00,40.00,19,-14,23,0.00
2012-10-8,66,45,27,16,7,2,36,22,10,0.00,40.00,27,10,34,0.00
2012-10-9,47,38,30,29,21,14,83,51,35,0.00,40.00,12,-23,19,0.00
2012-10-10,67,47,24,21,17,9,72,37,14,0.00,40.00,16,-28,24,0.00
2012-10-11,58,49,40,26,20,11,46,31,17,0.00,40.00,21,1,26,0.00
2012-10-12,66,47,28,36,28,19,72,48,23,0.00,40.00,32,8,40,0.00
2012-10-13,65,51,40,36,29,19,75,45,26,0.00,40.00,29,10,37,0.00
2012-10-14,65,49,30,29,24,17,86,42,18,0.00,40.00,21,11,28,0.00
2012-10-15,63,51,43,28,23,18,43,33,25,0.00,40.00,34,19,45,0.00
2012-10-16,59,48,35,33,27,16,75,44,24,0.00,40.00,41,-13,58,0.00
2012-10-17,48,38,25,23,8,3,46,28,18,0.00,40.00,26,-38,35,0.00
2012-10-18,56,36,19,16,9,-1,51,33,20,0.00,40.00,12,-37,16,0.00
2012-10-19,58,45,24,24,18,8,58,36,23,0.00,40.00,34,-54,41,0.00
2012-10-20,67,53,40,25,20,15,35,28,19,0.00,40.00,36,12,45,0.00
2012-10-21,57,47,40,33,27,17,62,45,31,0.00,40.00,26,11,35,0.00
2012-10-22,60,48,38,39,31,25,88,54,27,0.00,40.00,32,13,50,0.00
2012-10-23,43,37,31,33,24,13,88,61,31,0.00,40.00,23,5,31,0.00
2012-10-24,32,28,19,25,22,12,86,79,65,0.00,40.00,17,0,22,0.00
2012-10-25,30,23,14,23,17,10,86,77,59,0.00,40.00,18,-127,24,0.00
2012-10-26,31,23,8,18,11,3,85,63,38,0.00,40.00,28,-9,35,0.00
2012-10-27,40,31,20,18,14,7,60,49,37,0.00,40.00,27,17,34,0.00
2012-10-28,54,41,32,27,22,15,57,46,32,0.00,40.00,33,24,42,0.00
2012-10-29,62,48,42,28,24,16,55,40,22,0.00,40.00,35,21,42,0.00
2012-10-30,56,47,39,24,21,17,45,35,26,0.00,40.00,24,16,31,0.00
2012-10-31,64,49,34,24,19,15,47,31,19,0.00,40.00,19,4,24,0.00
2012-11-1,60,47,35,21,16,10,44,29,15,0.00,40.00,31,17,40,0.00
2012-11-2,53,41,30,19,15,8,51,34,22,0.00,40.00,24,-16,32,0.00
2012-11-3,57,39,21,19,12,4,64,36,15,0.00,40.00,13,-59,16,0.00
2012-11-4,56,42,29,22,16,7,51,35,23,0.00,40.00,14,-1,22,0.00
2012-11-5,61,44,30,26,22,16,66,42,22,0.00,40.00,17,-1,21,0.00
2012-11-6,65,47,33,26,21,14,70,38,18,0.00,40.00,16,8,21,0.00
2012-11-7,60,49,35,24,21,17,57,33,23,0.00,40.00,30,20,39,0.00
2012-11-8,61,45,27,23,17,13,68,34,18,0.00,40.00,29,-11,38,0.00
2012-11-9,47,38,25,35,25,13,88,65,27,0.00,40.00,35,2,42,0.00
2012-11-10,25,17,11,22,12,6,87,81,78,0.00,40.00,11,-80,13,0.00
2012-11-11,22,11,1,8,-1,-9,78,59,39,0.00,40.00,16,-161,21,0.00
2012-11-12,30,20,10,11,4,-5,55,49,40,0.00,40.00,32,14,41,0.00
2012-11-13,44,29,22,19,14,11,74,54,31,0.00,40.00,33,6,39,0.00
2012-11-14,38,31,25,21,17,-100,68,57,44,0.00,40.00,33,19,40,0.00
2012-11-15,36,29,19,18,15,12,75,55,42,0.00,40.00,27,13,34,0.00
2012-11-16,43,34,25,18,16,12,62,47,33,0.00,40.00,29,-2,35,0.00
2012-11-17,45,37,29,27,22,18,73,55,42,0.00,40.00,28,18,34,0.00
2012-11-18,45,37,30,30,27,23,83,67,46,0.00,40.00,40,12,50,0.00
2012-11-19,42,37,32,28,26,21,83,66,50,0.00,40.00,32,23,40,0.00
2012-11-20,49,39,33,24,22,18,68,49,34,0.00,40.00,32,22,44,0.00
2012-11-21,51,41,32,21,18,15,60,41,24,0.00,40.00,30,19,42,0.00
2012-11-22,40,32,19,22,5,-2,53,32,21,0.00,40.00,29,8,39,0.00
2012-11-23,47,31,14,15,9,0,66,39,22,0.00,40.00,32,17,43,0.00
2012-11-24,49,39,32,17,12,8,41,32,22,0.00,40.00,37,27,45,0.00
2012-11-25,49,36,26,24,19,12,88,52,34,0.00,40.00,27,12,34,0.00
2012-11-26,36,26,17,22,13,2,88,60,29,0.00,40.00,29,12,38,0.00
2012-11-27,45,32,25,13,8,5,47,36,23,0.00,40.00,38,21,45,0.00
2012-11-28,51,39,32,11,8,5,32,26,19,0.00,40.00,35,18,42,0.00
2012-11-29,49,39,30,20,13,5,48,34,24,0.00,40.00,29,18,43,0.00
2012-11-30,45,38,29,29,20,13,74,47,36,0.00,40.00,38,0,46,0.00
2012-12-1,46,40,34,30,26,19,75,57,40,0.00,40.00,38,23,46,0.00
2012-12-2,48,39,30,31,21,18,83,49,30,0.00,40.00,39,24,57,0.00
2012-12-3,37,29,23,26,12,5,64,48,37,0.00,40.00,34,20,42,0.00
2012-12-4,38,31,22,27,14,5,66,50,39,0.00,40.00,42,25,52,0.00
2012-12-5,46,39,32,28,26,19,66,58,45,0.00,40.00,40,25,54,0.00
2012-12-6,41,31,20,19,14,-100,72,52,32,0.00,40.00,31,13,41,0.00
2012-12-7,37,27,16,18,10,2,70,48,31,0.00,40.00,32,9,40,0.00
2012-12-8,27,21,11,17,7,-10,79,58,21,0.00,40.00,38,19,49,0.00
2012-12-9,20,11,5,11,1,-6,80,65,47,0.00,40.00,23,9,30,0.00
2012-12-10,32,14,2,11,2,-5,79,59,37,0.00,40.00,23,11,30,0.00
2012-12-11,29,21,7,18,10,1,77,62,51,0.00,40.00,43,23,53,0.00
2012-12-12,37,29,19,17,14,9,66,52,41,0.00,40.00,28,19,40,0.00
2012-12-13,39,29,17,16,12,7,64,48,38,0.00,40.00,25,5,31,0.00
2012-12-14,38,28,17,17,11,4,60,48,36,0.00,40.00,17,8,19,0.00
2012-12-15,35,27,18,20,17,8,80,66,46,0.00,40.00,30,13,37,0.00
2012-12-16,30,22,17,9,7,4,65,51,37,0.00,40.00,31,-42,39,0.00
2012-12-17,38,27,19,24,14,-1,77,56,30,0.00,40.00,44,12,58,0.00
2012-12-18,24,18,13,7,-3,-10,61,39,27,0.00,40.00,27,14,32,0.00
2012-12-19,24,13,0,-9,-12,-18,46,32,18,0.00,40.00,17,6,20,0.00
2012-12-20,25,13,3,0,-6,-14,48,43,32,0.00,40.00,39,25,50,0.00
2012-12-21,33,17,7,3,-3,-8,49,40,25,0.00,40.00,28,20,35,0.00
2012-12-22,31,21,11,4,0,-5,47,39,29,0.00,40.00,29,20,34,0.00
2012-12-23,33,24,16,12,7,0,74,48,30,0.00,40.00,34,19,40,0.00
2012-12-24,33,22,7,20,11,3,83,63,37,0.00,40.00,23,11,28,0.00
2012-12-25,19,8,3,7,1,-3,80,73,59,0.00,40.00,27,10,34,0.00
2012-12-26,20,14,10,12,7,3,81,73,66,0.00,40.00,27,15,34,0.00
2012-12-27,21,14,10,14,9,5,81,78,70,0.00,40.00,12,4,15,0.00
2012-12-28,18,10,-1,7,0,-8,79,65,54,0.00,40.00,19,11,23,0.00
2012-12-29,15,8,2,5,-1,-6,74,68,51,0.00,40.00,35,22,44,0.00
2012-12-30,26,8,-3,9,-1,-8,76,66,46,0.00,40.00,24,11,30,0.00
2012-12-31,25,5,-11,3,-6,-17,76,64,34,0.00,40.00,12,5,14,0.00
2013-1-1,17,10,-2,9,0,-10,74,65,51,0.00,40.00,29,9,35,0.00